Temperature
11 11 11 10 10 10 10 10 10 10 10 10 10 10 10 10 10 10 10 10 10 10 10 10 10 10 10 10 10 10 10 9 10 10 10 9 9 9 9 9 9 9 9
10 10 10 10 10 10 10 10 10 10 10 10 9 9 9 9 9 10 10 10 9 10 10 10 9 9 9 9 9 9 9 9 9 9 9 9 9 9 9 9 9 9 9
10 10 9 9 9 9 9 9 9 9 9 9 9 9 9 9 9 9 9 9 9 9 9 9 9 9 9 9 9 9 8 8 8 9 8 8 8 8 8 8 8 8 8
9 9 9 9 9 9 9 9 9 9 9 8 8 9 8 8 8 9 9 9 8 8 9 9 8 8 8 8 8 8 8 8 8 8 8 8 8 8 8 8 8 8 8
9 9 9 9 9 8 8 8 8 8 8 8 8 8 8 8 8 8 8 8 8 8 8 8 8 8 8 8 8 8 8 7 7 7 7 7 7 7 7 7 7 7 7
8 8 8 8 8 8 8 8 8 8 8 8 8 8 8 8 8 8 8 8 8 8 7 7 7 7 7 7 8 7 7 7 7 7 7 7 7 7 7 7 7 7 7
8 8 8 8 8 7 7 7 7 7 7 7 7 7 7 7 7 7 7 7 7 7 7 7 7 7 7 7 7 7 7 7 6 6 6 6 6 6 6 6 6 6 6
7 7 7 7 7 7 7 7 7 7 7 7 6 6 6 6 6 7 7 7 6 6 6 6 6 6 6 6 6 6 6 6 6 6 6 5 5 5 6 6 6 6 6
7 7 7 7 7 6 6 6 6 6 6 6 6 5 5 6 5 6 6 6 6 6 6 6 6 6 6 6 6 6 6 6 6 6 5 5 5 5 5 5 5 5 5
6 6 6 6 6 6 6 6 6 6 6 5 5 5 5 5 5 5 5 5 5 5 5 5 5 5 5 5 5 5 5 5 5 5 5 5 5 5 5 5 4 4 4
6 6 6 6 6 6 6 5 6 5 5 5 5 5 5 5 4 4 4 4 5 5 5 5 5 5 5 5 5 5 5 5 5 5 5 5 4 4 4 4 4 4 4
5 5 5 5 5 5 5 5 5 5 5 5 4 4 4 4 4 4 4 3 4 4 4 4 4 4 4 4 4 4 4 4 4 4 4 4 4 4 4 4 4 3 3
5 5 4 4 5 5 5 5 4 4 4 4 4 4 4 4 4 4 3 3 3 3 3 4 4 4 4 4 4 4 4 4 4 4 4 4 4 4 3 3 3 3 3
4 4 4 4 4 4 4 4 4 4 4 4 4 4 3 3 3 3 3 2 2 2 2 3 3 3 3 3 3 3 3 3 3 3 3 3 3 3 3 3 3 3 3
4 4 4 4 4 4 4 4 4 4 3 3 3 3 3 3 3 3 3 2 2 1 2 2 2 2 2 2 2 2 2 2 2 2 3 3 3 3 3 3 3 2 2
3 3 3 3 3 3 3 3 3 3 3 3 3 3 3 3 2 2 2 2 2 1 1 1 2 2 2 2 2 2 2 2 2 2 2 2 2 2 2 2 2 2 2
3 3 3 3 3 3 3 3 3 3 3 3 3 2 2 2 2 2 2 2 1 1 1 1 1 1 1 1 1 1 1 1 1 1 1 2 2 2 2 2 2 1 1
3 3 3 3 3 3 3 3 3 2 2 2 2 2 2 2 2 2 1 1 1 1 1 1 1 1 1 1 1 1 1 1 1 1 1 1 1 1 1 1 1 1 1
3 2 2 3 3 3 2 2 2 2 2 2 2 2 2 1 1 1 1 1 1 1 0 0 0 0 0 0 0 0 0 0 0 0 0 0 0 0 1 1 1 1 0
2 2 2 2 2 2 2 2 2 2 2 2 1 1 1 1 1 1 1 1 0 0 -0 -0 -0 -0 -0 -0 -1 -0 -0 -0 -0 -0 -0 -0 -0 -0 0 0 0 0 -0
2 2 2 2 2 2 2 2 2 1 1 1 1 1 1 1 1 0 0 0 0 -0 -1 -1 -1 -1 -1 -1 -1 -1 -1 -1 -1 -1 -1 -1 -1 -1 -1 -1 -1 -1 -1
1 1 2 1 1 1 1 1 1 1 1 0 0 0 0 0 0 0 0 0 -0 -0 -1 -1 -1 -1 -1 -1 -1 -1 -2 -2 -2 -2 -2 -1 -1 -1 -1 -1 -1 -1 -1
1 1 1 1 1 1 1 1 1 0 0 0 -0 -0 -0 -0 -0 -0 -0 -0 -1 -1 -1 -1 -1 -1 -1 -2 -2 -2 -2 -2 -2 -2 -2 -2 -2 -2 -2 -2 -2 -2 -2
1 1 1 1 1 1 0 0 0 -0 -0 -0 -0 -0 -0 -0 -1 -1 -1 -1 -1 -1 -1 -1 -1 -1 -2 -2 -2 -2 -2 -2 -2 -2 -2 -3 -3 -3 -2 -2 -2 -2 -2
0 0 0 0 0 0 0 -0 -0 -1 -1 -1 -1 -1 -1 -1 -1 -1 -1 -1 -1 -1 -2 -2 -2 -2 -2 -2 -2 -2 -2 -3 -3 -3 -3 -3 -3 -3 -3 -3 -3 -3 -3
-0 -0 -0 -0 -0 -0 -1 -1 -1 -1 -1 -1 -1 -1 -1 -1 -1 -1 -1 -2 -2 -2 -2 -2 -2 -2 -2 -2 -3 -3 -3 -3 -3 -3 -3 -3 -3 -4 -4 -3 -3 -3 -3
Wind_Speed
1 1 1 2 2 2 2 2 2 2 2 2 2 2 2 2 2 2 3 5 5 4 3 3 3 3 3 3 3 2 2 2 3 3 4 4 4 4 4 4 5 5 6
1 1 1 1 1 2 1 1 1 2 1 2 2 1 1 1 1 1 2 3 4 5 4 3 3 2 2 2 2 3 2 2 3 3 3 4 5 5 5 5 5 6 6
2 2 2 1 1 1 1 1 2 2 1 1 1 1 1 1 0 1 1 1 1 3 4 4 3 2 2 3 3 3 3 3 3 3 4 4 4 5 6 6 6 7 7
3 2 2 1 1 1 1 1 1 1 1 1 1 0 0 0 1 0 0 1 1 1 2 4 3 3 3 3 3 3 3 4 4 4 4 4 5 5 6 6 7 7 8
3 2 2 1 2 1 1 1 1 1 1 1 1 1 1 1 1 1 0 0 1 1 1 2 2 3 3 4 4 4 4 4 5 5 5 5 5 6 6 7 7 8 8
3 2 2 2 2 2 2 2 1 1 1 1 1 1 2 2 1 1 1 1 0 1 1 2 2 2 3 4 4 4 4 5 5 6 5 6 6 7 7 8 8 8 8
3 3 2 2 2 2 2 2 2 2 1 1 1 1 2 2 2 2 1 1 1 1 2 2 2 2 2 2 4 5 5 6 6 6 7 7 7 8 8 8 8 8 9
3 3 3 3 3 2 3 3 2 2 1 1 2 2 2 2 2 2 2 2 2 2 2 3 3 3 3 3 3 4 5 6 7 7 7 7 8 8 8 9 9 9 10
4 4 4 4 3 3 3 4 4 4 2 2 2 2 2 2 2 2 3 3 3 3 3 3 4 4 4 3 3 3 5 6 7 8 8 8 8 9 9 10 10 10 11
4 4 4 4 4 3 4 4 4 4 4 3 2 2 3 2 2 2 2 3 4 4 4 4 4 4 4 4 3 4 5 6 7 8 9 9 9 9 10 10 11 11 11
4 4 5 4 4 3 4 4 4 4 4 4 3 3 3 3 4 3 4 3 3 3 4 4 4 4 4 4 4 4 5 6 7 8 9 9 10 11 11 11 11 11 12
3 4 5 5 4 4 4 4 4 5 5 5 5 4 4 3 3 4 5 5 5 4 4 4 4 4 4 4 4 4 6 6 7 8 9 10 10 11 11 12 12 12 12
4 5 5 5 4 5 5 4 4 5 5 6 6 5 5 5 4 4 4 4 5 5 4 3 3 4 4 4 4 4 6 6 7 8 8 9 9 10 11 12 12 12 12
5 5 5 5 5 5 5 5 4 5 5 5 6 5 4 4 4 4 4 4 4 5 5 5 3 4 4 4 4 5 6 6 7 8 8 9 9 10 11 11 11 12 12
5 5 5 5 5 5 5 5 4 5 5 5 5 5 4 4 4 4 4 5 4 5 6 5 4 4 5 5 5 6 6 6 8 9 9 9 9 10 11 11 11 11 11
5 5 6 5 5 5 5 5 4 5 5 5 4 5 5 4 3 4 5 5 5 5 6 4 5 5 5 5 6 7 7 7 8 9 9 9 10 10 10 11 11 11 11
6 6 6 6 5 5 5 5 5 5 5 5 4 5 5 5 4 4 4 5 5 5 7 6 5 5 7 6 6 6 7 7 7 8 9 10 10 10 11 11 11 11 11
5 5 5 5 5 5 5 5 5 5 5 5 5 5 5 4 5 4 4 5 5 5 6 7 6 6 7 7 7 6 6 7 7 7 9 10 10 10 11 11 11 11 11
5 5 5 5 5 5 5 5 5 5 5 5 5 5 6 5 5 4 5 4 4 4 5 5 6 5 6 5 6 6 6 6 6 7 8 9 9 10 10 11 10 10 10
5 5 5 5 5 5 5 5 5 5 5 5 5 6 6 6 6 5 5 5 4 4 4 4 5 5 5 6 5 5 5 5 5 5 6 7 8 9 10 10 10 10 9
5 5 5 5 5 4 4 5 5 5 5 5 5 5 5 6 6 5 5 5 4 4 4 4 5 5 5 5 5 5 5 5 5 5 5 5 6 6 6 7 8 8 9
4 4 5 5 5 4 4 5 4 5 5 5 5 5 5 5 5 6 6 6 5 5 5 5 5 6 6 6 5 5 5 5 5 3 5 5 5 5 5 5 6 8 9
4 4 4 5 5 5 4 4 4 4 4 5 4 4 4 3 4 4 4 5 5 6 7 7 7 7 6 6 6 6 6 6 6 4 5 5 5 5 5 6 7 8 9
3 3 3 3 3 3 3 3 3 4 3 4 4 4 4 4 3 3 4 4 4 4 5 6 6 6 6 6 6 6 6 6 6 4 4 5 5 5 6 6 6 8 8
2 2 2 2 3 3 3 2 2 2 2 3 3 4 4 4 4 4 3 3 4 4 3 4 5 6 7 8 6 4 4 4 5 4 3 3 4 5 5 5 5 6 7
2 1 1 2 2 3 2 2 2 2 2 2 2 3 4 5 5 4 4 4 4 4 3 3 3 4 4 4 6 5 5 5 4 4 2 3 4 4 3 3 4 5 6
Wind_Direction
128 119 118 116 121 120 113 124 130 116 106 90 74 67 59 47 43 41 52 47 35 34 43 43 49 65 69 59 47 44 34 18 7 1 8 4 351 336 331 333 336 336 333
134 141 143 131 142 144 124 126 138 124 114 102 86 68 50 34 27 31 43 52 44 34 34 38 42 41 38 31 22 20 5 355 354 356 354 354 356 350 333 322 320 323 325
166 159 147 146 123 132 143 127 141 132 126 125 118 93 64 38 2 359 18 22 32 41 34 27 25 18 9 355 358 351 352 337 332 337 340 341 338 334 335 336 331 324 322
178 167 162 168 149 137 138 143 175 158 165 182 194 216 232 249 244 295 357 10 23 23 30 23 5 359 353 344 336 333 321 328 316 309 315 322 325 328 329 330 328 327 325
186 178 178 178 176 165 162 173 207 206 195 205 226 250 255 255 253 255 268 338 11 6 353 14 5 357 345 337 332 326 327 325 324 307 301 308 314 315 314 318 322 322 324
197 188 180 189 192 190 189 190 196 215 223 221 224 239 245 248 240 246 249 246 292 306 323 334 332 341 342 341 333 325 323 323 318 324 311 304 307 307 308 311 316 320 321
205 199 190 195 202 207 211 205 206 199 226 247 250 248 236 224 226 235 241 247 251 271 303 319 315 312 313 332 336 328 325 322 322 316 317 311 310 310 310 310 313 317 318
214 206 201 201 205 209 213 212 210 213 217 232 267 261 250 220 213 240 241 250 261 278 289 295 295 293 295 294 322 329 322 318 318 319 322 311 309 309 307 308 309 310 311
217 215 213 210 204 206 214 215 211 216 218 218 245 255 254 255 287 227 242 250 263 284 286 288 281 278 277 281 290 312 319 316 311 314 315 314 304 303 307 306 305 305 308
221 216 214 214 211 212 214 213 216 224 216 219 223 253 276 287 261 263 239 246 268 276 280 282 275 273 273 273 286 305 313 313 311 311 310 308 309 303 302 305 304 303 305
222 219 215 214 214 218 219 216 215 222 220 221 225 229 240 254 257 256 265 266 272 272 280 284 274 269 269 267 277 295 303 303 306 308 307 306 305 307 304 301 303 303 304
224 222 219 219 218 220 221 220 218 223 226 223 225 228 231 237 244 253 260 267 276 284 286 278 268 268 267 268 276 291 296 296 300 305 306 305 305 303 304 307 302 303 301
230 228 222 223 222 222 222 219 219 228 229 226 230 232 234 242 248 255 260 269 283 289 281 274 274 272 268 270 276 287 287 288 294 299 301 303 301 301 300 302 303 299 300
229 227 226 226 224 220 221 219 221 228 233 227 231 234 238 240 243 244 251 258 273 278 276 277 287 277 274 281 286 286 284 284 288 291 294 295 296 299 298 297 300 302 302
229 223 226 226 225 222 223 223 224 225 230 228 229 232 238 244 243 242 241 240 248 268 277 277 283 286 290 288 286 283 285 287 286 287 290 291 294 296 298 296 297 299 301
222 221 225 226 226 223 221 222 229 226 230 230 231 235 242 243 248 247 238 239 244 253 268 279 285 289 293 287 287 284 283 286 278 281 285 290 293 293 295 297 297 297 300
218 220 223 223 222 222 220 220 223 223 227 229 234 237 244 245 243 249 242 238 244 249 258 277 284 286 288 288 290 287 284 284 281 278 282 285 289 291 292 293 293 296 298
218 217 219 220 221 220 221 222 223 223 226 228 235 238 243 245 243 248 249 245 247 251 254 268 278 283 284 288 292 292 287 283 280 282 280 283 287 290 293 294 293 294 295
214 212 214 217 220 220 222 224 224 228 230 231 234 237 242 244 244 246 250 256 258 260 256 259 272 282 288 290 293 291 286 282 278 277 278 279 283 289 293 292 292 293 292
210 211 215 218 220 221 224 225 226 232 230 233 236 238 242 243 244 247 248 252 256 258 256 257 265 276 284 289 287 289 288 285 281 282 282 281 282 283 287 286 289 291 293
216 213 211 216 221 225 227 226 227 229 232 238 241 243 245 244 248 250 251 249 249 253 256 260 264 271 275 281 281 285 287 293 286 285 289 284 285 284 286 284 284 287 292
213 207 209 215 221 227 228 229 234 232 233 239 248 251 251 241 242 248 251 251 251 249 251 255 260 260 270 280 288 285 285 287 287 292 293 292 291 291 296 297 302 296 295
207 211 216 219 227 229 220 224 231 238 238 239 242 247 255 252 249 250 250 248 248 246 248 253 257 262 270 273 278 282 280 281 283 290 294 291 296 295 300 297 301 301 298
205 214 219 221 229 229 215 221 237 239 246 243 240 244 251 256 253 254 261 266 270 267 257 254 257 265 270 272 272 277 282 286 284 277 280 283 294 296 299 295 296 300 301
204 218 221 218 226 235 212 213 237 237 239 251 248 248 250 252 250 246 255 266 280 288 277 260 265 268 271 271 269 271 269 273 281 282 275 274 288 297 294 288 292 296 301
204 208 227 232 233 241 223 219 228 231 238 252 256 254 247 254 258 250 247 250 265 279 285 287 275 271 272 267 265 262 261 263 274 276 269 265 283 302 295 288 307 312 308
Height
1530 1530 1531 1531 1531 1531 1531 1531 1531 1531 1532 1532 1532 1532 1532 1532 1533 1533 1533 1532 1533 1532 1533 1533 1533 1533 1533 1533 1532 1532 1531 1531 1530 1530 1529 1528 1528 1527 1527 1526 1525 1524 1523
1528 1529 1529 1529 1529 1529 1529 1529 1530 1530 1530 1530 1531 1531 1531 1531 1531 1531 1531 1531 1531 1531 1531 1531 1531 1531 1531 1531 1530 1530 1529 1529 1528 1528 1527 1526 1525 1525 1524 1524 1523 1522 1521
1527 1527 1527 1527 1527 1528 1528 1528 1528 1528 1528 1529 1529 1530 1530 1530 1530 1530 1529 1529 1529 1529 1529 1529 1529 1529 1529 1528 1528 1528 1527 1527 1526 1525 1525 1524 1523 1522 1522 1521 1520 1519 1518
1525 1525 1525 1525 1526 1526 1526 1526 1526 1526 1527 1527 1527 1528 1528 1528 1528 1528 1527 1527 1527 1527 1527 1527 1527 1526 1526 1526 1526 1525 1525 1524 1523 1523 1522 1521 1521 1520 1519 1518 1517 1516 1515
1522 1522 1523 1523 1523 1524 1524 1525 1525 1525 1525 1525 1525 1525 1525 1525 1525 1525 1525 1525 1525 1525 1525 1524 1524 1524 1524 1523 1523 1523 1522 1521 1521 1520 1519 1519 1518 1517 1516 1515 1514 1513 1512
1520 1520 1520 1521 1521 1521 1522 1522 1523 1523 1523 1523 1523 1523 1522 1522 1523 1523 1523 1523 1523 1522 1522 1522 1521 1521 1521 1520 1520 1520 1519 1518 1518 1517 1517 1516 1515 1514 1513 1512 1511 1509 1508
1517 1517 1518 1518 1519 1519 1519 1520 1520 1521 1520 1521 1521 1520 1520 1520 1520 1520 1520 1520 1520 1520 1519 1519 1519 1518 1518 1517 1517 1516 1516 1515 1515 1514 1513 1512 1511 1511 1510 1509 1507 1506 1505
1514 1514 1515 1515 1516 1516 1517 1517 1517 1518 1518 1518 1519 1518 1519 1519 1517 1517 1517 1517 1517 1517 1516 1516 1516 1515 1515 1514 1513 1513 1512 1512 1511 1510 1509 1509 1508 1507 1506 1505 1504 1502 1501
1510 1511 1511 1512 1513 1513 1513 1514 1514 1515 1515 1515 1516 1517 1517 1516 1516 1514 1514 1514 1514 1514 1513 1513 1513 1512 1511 1511 1510 1509 1509 1508 1508 1507 1506 1505 1504 1503 1502 1501 1500 1498 1497
1506 1507 1508 1508 1509 1510 1510 1511 1511 1512 1512 1512 1513 1513 1514 1513 1514 1512 1512 1511 1511 1511 1510 1510 1509 1509 1508 1507 1506 1506 1505 1504 1504 1503 1502 1501 1500 1499 1498 1497 1496 1494 1492
1503 1503 1504 1505 1505 1506 1506 1507 1507 1508 1508 1509 1509 1509 1509 1510 1510 1509 1508 1508 1508 1507 1507 1506 1506 1505 1504 1503 1503 1502 1501 1500 1499 1499 1498 1497 1496 1495 1494 1493 1491 1489 1487
1499 1499 1500 1501 1501 1502 1503 1503 1504 1504 1505 1505 1505 1505 1506 1506 1506 1506 1505 1504 1504 1503 1503 1503 1502 1501 1500 1500 1499 1498 1497 1496 1495 1494 1493 1492 1491 1490 1489 1488 1486 1485 1483
1495 1495 1496 1497 1497 1498 1499 1499 1500 1500 1501 1501 1501 1502 1502 1502 1503 1502 1502 1501 1500 1500 1499 1499 1498 1498 1497 1496 1495 1494 1493 1492 1491 1490 1489 1488 1487 1485 1484 1483 1482 1480 1478
1491 1492 1492 1493 1493 1494 1494 1495 1495 1496 1497 1497 1497 1498 1498 1498 1498 1498 1498 1498 1497 1496 1496 1495 1494 1493 1493 1492 1491 1490 1488 1487 1486 1485 1484 1483 1482 1481 1479 1478 1477 1475 1473
1487 1487 1488 1489 1489 1489 1490 1491 1491 1492 1492 1493 1493 1494 1494 1494 1494 1494 1494 1494 1495 1493 1492 1491 1491 1490 1489 1488 1487 1486 1484 1483 1482 1481 1480 1479 1477 1476 1474 1473 1472 1470 1469
1482 1483 1483 1484 1485 1485 1486 1487 1487 1488 1488 1489 1489 1489 1490 1490 1490 1490 1490 1490 1490 1490 1489 1487 1487 1486 1485 1484 1483 1481 1480 1479 1477 1476 1475 1474 1472 1471 1470 1468 1467 1465 1464
1478 1478 1479 1480 1481 1481 1482 1482 1483 1484 1484 1484 1485 1485 1485 1486 1486 1485 1485 1485 1486 1486 1484 1483 1483 1482 1481 1480 1478 1477 1476 1474 1473 1472 1470 1469 1468 1466 1465 1463 1462 1461 1459
1473 1474 1475 1476 1476 1477 1477 1478 1479 1479 1480 1480 1481 1481 1481 1481 1481 1481 1481 1481 1481 1481 1480 1479 1478 1478 1477 1476 1474 1473 1472 1470 1469 1468 1466 1465 1463 1462 1460 1459 1457 1456 1455
1469 1470 1471 1472 1472 1473 1473 1474 1475 1475 1476 1476 1477 1477 1477 1477 1477 1477 1477 1477 1477 1476 1476 1475 1474 1474 1473 1472 1470 1469 1468 1466 1465 1463 1462 1460 1459 1457 1455 1454 1452 1451 1450
1464 1465 1466 1467 1468 1469 1469 1470 1471 1471 1472 1472 1473 1473 1473 1473 1473 1473 1473 1473 1473 1472 1472 1471 1470 1470 1469 1468 1467 1465 1464 1463 1461 1460 1458 1456 1454 1453 1451 1449 1448 1446 1445
1460 1461 1462 1463 1464 1465 1466 1466 1467 1467 1467 1468 1468 1469 1469 1469 1469 1469 1469 1469 1469 1468 1468 1467 1466 1466 1465 1464 1463 1462 1460 1459 1457 1456 1454 1452 1451 1449 1447 1445 1444 1442 1441
1456 1457 1458 1459 1460 1461 1462 1463 1463 1463 1464 1464 1464 1465 1465 1465 1465 1465 1465 1465 1465 1464 1464 1464 1463 1462 1461 1461 1460 1459 1457 1456 1454 1453 1451 1449 1448 1445 1443 1442 1440 1438 1437
1453 1454 1455 1456 1457 1458 1458 1459 1459 1460 1460 1460 1460 1460 1461 1461 1461 1461 1461 1461 1460 1460 1460 1460 1459 1458 1458 1457 1457 1456 1454 1453 1451 1449 1448 1445 1444 1442 1440 1438 1436 1435 1433
1450 1451 1452 1452 1453 1454 1455 1455 1456 1456 1456 1456 1457 1457 1457 1457 1457 1457 1457 1457 1456 1456 1456 1456 1456 1455 1455 1454 1453 1452 1451 1449 1447 1446 1445 1443 1441 1439 1437 1435 1433 1432 1430
1447 1448 1449 1449 1450 1451 1451 1452 1452 1452 1452 1453 1453 1453 1454 1454 1454 1454 1453 1453 1452 1452 1452 1452 1452 1451 1451 1450 1449 1448 1447 1446 1444 1443 1442 1440 1438 1436 1434 1432 1430 1429 1427
1445 1445 1446 1447 1447 1448 1448 1449 1449 1449 1449 1450 1450 1450 1451 1451 1451 1451 1450 1450 1449 1449 1449 1448 1448 1447 1446 1446 1445 1445 1444 1443 1441 1439 1438 1437 1435 1434 1431 1429 1428 1426 1424